TimeCDT,TemperatureF,Dew PointF,Humidity,Sea Level PressureIn,VisibilityMPH,Wind Direction,Wind SpeedMPH,Gust SpeedMPH,PrecipitationIn,Events,Conditions,WindDirDegrees,DateUTC
12:52 AM,36.0,34.0,93,29.72,2.0,ENE,12.7,-,N/A,,Overcast,70,2013-03-16 05:52:00
1:02 AM,35.6,33.8,93,29.72,1.8,ENE,10.4,-,N/A,,Overcast,70,2013-03-16 06:02:00
1:28 AM,35.6,33.8,93,29.74,2.0,NNE,8.1,-,N/A,,Overcast,20,2013-03-16 06:28:00
1:43 AM,35.6,33.8,93,29.73,1.8,NE,8.1,-,N/A,,Overcast,40,2013-03-16 06:43:00
1:52 AM,35.1,34.0,96,29.75,1.8,NE,6.9,-,N/A,,Overcast,40,2013-03-16 06:52:00
2:52 AM,35.1,33.1,92,29.77,2.0,NNE,10.4,-,N/A,,Overcast,30,2013-03-16 07:52:00
3:52 AM,34.0,33.1,96,29.78,1.8,North,9.2,-,N/A,,Overcast,10,2013-03-16 08:52:00
4:52 AM,33.1,32.0,96,29.78,1.8,North,8.1,-,N/A,,Overcast,10,2013-03-16 09:52:00
5:23 AM,33.8,32.0,93,29.77,2.0,NNE,5.8,-,N/A,,Overcast,30,2013-03-16 10:23:00
5:52 AM,33.1,32.0,96,29.81,3.0,North,4.6,-,N/A,,Overcast,360,2013-03-16 10:52:00
6:30 AM,33.8,30.2,87,29.82,4.0,North,5.8,-,N/A,,Overcast,350,2013-03-16 11:30:00
6:52 AM,33.1,30.9,92,29.86,5.0,North,9.2,-,N/A,,Overcast,350,2013-03-16 11:52:00
7:32 AM,33.8,30.2,87,29.87,2.5,North,9.2,-,N/A,,Overcast,360,2013-03-16 12:32:00
7:52 AM,33.1,30.9,92,29.90,2.5,North,4.6,-,N/A,,Overcast,350,2013-03-16 12:52:00
8:50 AM,33.8,30.2,87,29.93,5.0,North,6.9,-,N/A,,Overcast,350,2013-03-16 13:50:00
8:52 AM,33.1,30.0,89,29.94,3.0,North,8.1,-,N/A,,Overcast,350,2013-03-16 13:52:00
9:12 AM,33.8,30.2,87,29.93,3.0,North,6.9,-,N/A,,Overcast,350,2013-03-16 14:12:00
9:52 AM,34.0,30.0,85,29.96,5.0,NNW,8.1,-,N/A,,Overcast,340,2013-03-16 14:52:00
10:52 AM,35.1,30.0,82,29.99,7.0,North,8.1,-,N/A,,Overcast,350,2013-03-16 15:52:00
11:52 AM,35.1,30.0,82,30.02,5.0,North,9.2,-,N/A,,Haze,350,2013-03-16 16:52:00
12:33 PM,35.6,28.4,75,30.01,7.0,NNE,9.2,-,N/A,,Overcast,20,2013-03-16 17:33:00
12:52 PM,35.1,28.9,78,30.04,6.0,North,8.1,-,N/A,,Haze,10,2013-03-16 17:52:00
1:52 PM,37.9,27.0,65,30.03,10.0,NNE,11.5,-,N/A,,Overcast,20,2013-03-16 18:52:00
2:10 PM,37.4,26.6,65,30.02,10.0,North,10.4,-,N/A,,Overcast,360,2013-03-16 19:10:00
2:52 PM,37.9,27.0,65,30.04,10.0,North,10.4,-,N/A,,Overcast,10,2013-03-16 19:52:00
3:14 PM,37.4,26.6,65,30.02,10.0,North,10.4,-,N/A,,Overcast,350,2013-03-16 20:14:00
3:23 PM,37.4,26.6,65,30.02,10.0,NNW,9.2,-,N/A,,Overcast,340,2013-03-16 20:23:00
3:52 PM,37.9,25.0,60,30.04,10.0,North,9.2,-,N/A,,Overcast,360,2013-03-16 20:52:00
4:52 PM,37.0,25.0,62,30.05,10.0,NNE,8.1,-,N/A,,Overcast,20,2013-03-16 21:52:00
5:52 PM,36.0,24.1,62,30.06,10.0,North,6.9,-,N/A,,Overcast,10,2013-03-16 22:52:00
6:52 PM,35.1,24.1,64,30.08,10.0,NNE,5.8,-,N/A,,Overcast,30,2013-03-16 23:52:00
7:52 PM,35.1,23.0,61,30.10,10.0,North,6.9,-,N/A,,Overcast,10,2013-03-17 00:52:00
8:52 PM,34.0,24.1,67,30.12,10.0,North,4.6,-,N/A,,Overcast,10,2013-03-17 01:52:00
9:52 PM,34.0,23.0,64,30.13,10.0,NNW,6.9,-,N/A,,Overcast,340,2013-03-17 02:52:00
10:52 PM,33.1,25.0,72,30.14,10.0,North,9.2,-,N/A,,Overcast,350,2013-03-17 03:52:00
11:04 PM,33.8,24.8,70,30.13,10.0,NNW,8.1,-,N/A,,Overcast,340,2013-03-17 04:04:00
11:31 PM,32.0,24.8,75,30.14,10.0,NNW,11.5,-,N/A,,Overcast,340,2013-03-17 04:31:00
11:52 PM,32.0,23.0,69,30.16,10.0,NNW,8.1,-,N/A,,Overcast,340,2013-03-17 04:52:00